{"data":{"norad_id":65950,"epoch":"2026-09-20T06:58:33.754080Z","epoch_age_seconds":161580,"freshness":"FRESH","line1":"1 65950U 25228D   26263.29066845  .00000258  00000+0  62819-4 0  9997","line2":"2 65950  51.9009 212.5571 0000922  67.5641 292.5419 14.79927004 52154","mean_motion":14.79927004,"eccentricity":9.22e-5,"inclination_deg":51.9009,"raan_deg":212.5571,"arg_perigee_deg":67.5641,"mean_anomaly_deg":292.5419,"bstar":6.2819e-5,"rev_number":5215,"period_min":97.302096394479,"perigee_km":628.90844796352,"apogee_km":630.20066628666,"semimajor_km":7007.6915571251,"source":"CELESTRAK","updated_at":"2026-09-21T09:00:15.654606Z"}}